FW9110 Weather Reports


time (UTC)temp
C
wind
direction
speed
KPH
gust
KPH
rain 1hr
cm
rain 24hr
cm
rain mn
cm
humidity
%
barometer
mb
20260507070219 11 300 3.2 4.8 0.00 0.36 0.36 95 1010.0
20260507065715 11 325 1.6 1.6 0.00 0.36 0.36 95 1009.9
20260507065212 11 54 4.8 9.7 0.00 0.36 0.36 95 1009.8
20260507064709 11 30 9.7 14.5 0.00 0.36 0.36 95 1010.0
20260507064208 11 45 9.7 12.9 0.00 0.36 0.36 95 1009.8
20260507063705 11 335 1.6 4.8 0.00 0.36 0.36 95 1010.0
20260507063202 11 38 4.8 4.8 0.00 0.36 0.36 95 1010.1
20260507062659 12 329 1.6 1.6 0.00 0.36 0.36 95 1010.1
20260507062156 12 330 0.0 1.6 0.00 0.36 0.36 95 1009.8
20260507061654 12 325 0.0 1.6 0.00 0.36 0.36 95 1009.9
20260507061152 12 311 0.0 1.6 0.00 0.36 0.36 95 1010.0
20260507060649 12 324 1.6 1.6 0.00 0.36 0.36 95 1010.1
20260507060146 12 29 4.8 4.8 0.00 0.36 0.36 95 1010.0
20260507055642 12 357 3.2 4.8 0.00 0.36 0.36 95 1010.2
20260507055138 12 19 4.8 8.0 0.00 0.36 0.36 95 1010.2
20260507054634 12 328 1.6 1.6 0.00 0.36 0.36 95 1009.6
20260507054131 12 330 0.0 0.0 0.00 0.36 0.36 95 1009.8
20260507053629 12 15 3.2 3.2 0.18 0.36 0.36 95 1010.0
20260507053127 12 300 1.6 1.6 0.18 0.36 0.36 95 1010.0
20260507052625 12 329 0.0 0.0 0.00 0.33 0.33 95 1009.9
20260507052120 12 347 1.6 1.6 0.00 0.33 0.33 95 1009.9
20260507051618 12 322 1.6 3.2 0.13 0.33 0.33 95 1009.7
20260507051115 12 57 3.2 8.0 0.30 0.33 0.33 95 1009.8
20260507050612 13 303 0.0 0.0 0.18 0.30 0.30 95 1010.2
20260507050109 13 352 1.6 1.6 0.61 0.28 0.28 94 1010.0
20260507045605 13 321 1.6 3.2 1.68 0.28 0.28 93 1009.8
20260507045102 13 313 4.8 8.0 1.27 0.20 0.20 91 1010.1
20260507044559 14 270 1.6 3.2 0.18 0.03 0.03 89 1009.1
20260507044056 14 338 1.6 1.6 0.00 0.00 0.00 88 1009.5
20260507043551 14 291 0.0 1.6 0.00 0.00 0.00 89 1009.4
20260507043049 15 303 0.0 1.6 0.00 0.00 0.00 89 1009.8
20260507042545 14 313 1.6 1.6 0.00 0.00 0.00 88 1009.4
20260507042040 15 312 0.0 1.6 0.00 0.00 0.00 88 1009.2
20260507041538 15 356 4.8 4.8 0.00 0.00 0.00 88 1009.1
20260507041034 15 14 3.2 4.8 0.00 0.00 0.00 87 1009.2
20260507040531 15 345 3.2 3.2 0.00 0.00 0.00 87 1009.1
20260507040027 15 333 1.6 1.6 0.00 0.38 0.38 87 1009.1
20260507035523 15 266 4.8 4.8 0.00 0.38 0.38 86 1009.2
20260507035020 15 5 0.0 3.2 0.00 0.38 0.38 86 1009.0
20260507034517 15 41 3.2 3.2 0.00 0.38 0.38 85 1009.5
20260507034015 15 339 3.2 3.2 0.00 0.38 0.38 85 1009.5
20260507033513 15 346 4.8 4.8 0.00 0.38 0.38 84 1009.2
20260507033010 15 0 3.2 3.2 0.00 0.38 0.38 84 1008.9
20260507032506 15 312 1.6 3.2 0.00 0.38 0.38 84 1009.0
20260507032003 16 25 4.8 9.7 0.00 0.38 0.38 84 1009.0
20260507031459 16 336 3.2 4.8 0.00 0.38 0.38 84 1008.9
20260507030955 16 7 4.8 4.8 0.00 0.38 0.38 84 1008.7
20260507030453 16 347 3.2 8.0 0.00 0.38 0.38 84 1008.7
20260507025950 16 319 3.2 4.8 0.00 0.38 0.38 84 1008.9
20260507025447 16 19 4.8 8.0 0.00 0.38 0.38 84 1009.1
20260507024945 16 7 3.2 3.2 0.00 0.38 0.38 86 1008.9
20260507024442 16 22 4.8 8.0 0.00 0.38 0.38 89 1008.6
20260507023938 17 342 1.6 3.2 0.00 0.38 0.38 89 1008.6
20260507023435 17 297 3.2 4.8 0.00 0.38 0.38 90 1008.4
20260507022932 17 340 3.2 3.2 0.00 0.38 0.38 90 1008.5
20260507022429 17 338 1.6 3.2 0.00 0.38 0.38 90 1008.3
20260507021924 17 14 4.8 4.8 0.00 0.38 0.38 90 1008.4
20260507021420 17 333 1.6 1.6 0.00 0.38 0.38 91 1008.4
20260507020918 17 307 0.0 0.0 0.00 0.38 0.38 90 1008.5
20260507020414 17 330 0.0 1.6 0.00 0.38 0.38 91 1008.4
20260507015911 17 310 0.0 1.6 0.00 0.38 0.38 92 1008.5
20260507015410 17 297 1.6 1.6 0.00 0.38 0.38 94 1008.5
20260507014907 17 325 0.0 0.0 0.00 0.38 0.38 94 1008.6
20260507014403 18 294 0.0 0.0 0.00 0.38 0.38 93 1008.5
20260507013859 18 294 0.0 0.0 0.00 0.38 0.38 93 1008.5
20260507013356 18 294 0.0 0.0 0.00 0.38 0.38 92 1008.6
20260507012854 18 291 0.0 0.0 0.13 0.38 0.38 91 1008.8
20260507012349 18 322 0.0 0.0 0.13 0.38 0.38 90 1008.7
20260507011841 18 336 0.0 0.0 0.00 0.36 0.36 89 1008.4
20260507011338 18 323 1.6 1.6 0.00 0.36 0.36 89 1008.4
20260507010837 18 302 0.0 0.0 0.00 0.36 0.36 89 1008.4
20260507010333 18 302 0.0 0.0 0.00 0.36 0.36 89 1008.2
20260507005831 18 302 0.0 0.0 0.00 0.36 0.36 88 1008.2
20260507005327 18 302 0.0 0.0 0.00 0.36 0.36 88 1008.2
20260507004824 18 302 0.0 0.0 0.00 0.36 0.36 88 1008.4
20260507004321 18 315 0.0 0.0 0.00 0.36 0.36 88 1008.1
20260507003818 18 300 0.0 0.0 0.00 0.36 0.36 88 1008.0
20260507003314 18 300 0.0 0.0 0.00 0.36 0.36 87 1007.8
20260507002809 18 298 0.0 0.0 0.00 0.36 0.36 87 1007.8
20260507002306 18 299 0.0 0.0 0.00 0.36 0.36 87 1007.9
20260507001757 18 322 0.0 0.0 0.00 0.36 0.36 88 1008.0
20260507001254 18 298 0.0 0.0 0.00 0.36 0.36 87 1008.0
20260507000750 18 298 1.6 1.6 0.00 0.36 0.36 87 1007.9
20260507000246 18 296 1.6 1.6 0.00 0.36 0.36 87 1007.5
20260506235743 18 289 0.0 0.0 0.00 0.36 0.36 87 1007.5
20260506235238 18 289 0.0 0.0 0.00 0.36 0.36 86 1007.7
20260506234736 19 289 0.0 0.0 0.00 0.36 0.36 86 1007.4
20260506234233 19 289 0.0 0.0 0.00 0.36 0.36 86 1007.4
20260506233730 19 289 0.0 0.0 0.00 0.36 0.36 86 1007.3
20260506233227 19 289 0.0 0.0 0.00 0.36 0.36 85 1007.3
20260506232723 19 289 0.0 0.0 0.00 0.36 0.36 85 1007.3
20260506232218 19 289 0.0 0.0 0.00 0.36 0.36 84 1007.3
20260506231716 20 278 1.6 1.6 0.00 0.36 0.36 84 1007.2
20260506231214 19 290 0.0 0.0 0.00 0.36 0.36 84 1007.5
20260506230710 20 292 0.0 0.0 0.00 0.36 0.36 83 1007.6
20260506230207 20 285 0.0 0.0 0.00 0.36 0.36 83 1007.4
20260506225704 20 286 0.0 1.6 0.00 0.36 0.36 83 1007.4
20260506225201 20 289 0.0 0.0 0.00 0.36 0.36 83 1007.3
20260506224657 20 290 0.0 0.0 0.00 0.36 0.36 83 1007.4
20260506224154 20 290 0.0 0.0 0.00 0.36 0.36 83 1007.2
20260506223650 20 300 1.6 1.6 0.00 0.36 0.36 82 1007.1
20260506223146 20 303 0.0 1.6 0.00 0.36 0.36 81 1007.4
20260506222643 20 304 0.0 0.0 0.00 0.36 0.36 81 1007.4
20260506222139 20 290 0.0 0.0 0.00 0.36 0.36 82 1007.3
20260506221637 20 282 0.0 0.0 0.00 0.36 0.36 81 1007.3
20260506221135 20 316 0.0 1.6 0.00 0.36 0.36 81 1007.3
20260506220632 20 300 0.0 1.6 0.00 0.36 0.36 82 1007.2
20260506220127 20 283 1.6 1.6 0.00 0.36 0.36 80 1007.2
20260506215624 20 324 1.6 1.6 0.00 0.36 0.36 79 1007.3
20260506215119 20 300 1.6 1.6 0.00 0.36 0.36 79 1007.4
20260506214616 20 294 1.6 1.6 0.00 0.36 0.36 78 1007.1
20260506214114 21 304 0.0 1.6 0.00 0.36 0.36 78 1007.0
20260506213612 21 321 1.6 3.2 0.00 0.36 0.36 79 1006.9
20260506213108 20 286 1.6 1.6 0.00 0.36 0.36 79 1007.1
20260506212606 20 307 0.0 0.0 0.00 0.36 0.36 79 1007.0
20260506212100 21 303 1.6 1.6 0.00 0.36 0.36 78 1007.1
20260506211556 21 291 0.0 1.6 0.00 0.36 0.36 78 1007.0
20260506211054 21 242 1.6 3.2 0.00 0.36 0.36 76 1006.9
20260506210550 21 301 0.0 0.0 0.00 0.36 0.36 76 1006.9
20260506210047 21 301 0.0 1.6 0.00 0.36 0.36 77 1007.0
20260506205544 21 314 1.6 3.2 0.00 0.36 0.36 76 1007.1
20260506205039 21 272 3.2 3.2 0.00 0.36 0.36 77 1006.7
20260506204537 20 292 1.6 3.2 0.00 0.36 0.36 76 1006.9
20260506204034 21 247 3.2 3.2 0.00 0.36 0.36 77 1006.9
20260506203532 21 237 1.6 3.2 0.00 0.36 0.36 75 1007.0
20260506203028 21 349 4.8 8.0 0.00 0.36 0.36 75 1006.8
20260506202526 21 262 1.6 3.2 0.00 0.36 0.36 74 1006.9
20260506202022 21 300 3.2 3.2 0.00 0.36 0.36 73 1006.8
20260506201520 22 261 4.8 9.7 0.00 0.36 0.36 73 1006.9
20260506201016 21 349 4.8 11.3 0.00 0.36 0.36 73 1006.8
20260506200512 21 335 3.2 4.8 0.00 0.36 0.36 75 1006.9
20260506200009 21 288 1.6 3.2 0.00 0.36 0.36 75 1006.8
20260506195506 21 294 1.6 3.2 0.00 0.36 0.36 75 1006.8
20260506195002 20 322 6.4 11.3 0.00 0.36 0.36 76 1006.9
20260506194500 20 282 4.8 9.7 0.00 0.36 0.36 77 1006.9
20260506193956 20 256 1.6 3.2 0.00 0.36 0.36 76 1006.9
20260506193454 20 286 4.8 4.8 0.00 0.36 0.36 77 1007.0
20260506192944 21 288 4.8 8.0 0.00 0.36 0.36 77 1006.9
20260506192442 20 318 3.2 3.2 0.00 0.36 0.36 80 1007.0
20260506191938 20 248 6.4 8.0 0.00 0.36 0.36 78 1007.1
20260506191435 20 322 1.6 1.6 0.00 0.36 0.36 80 1007.4
20260506190931 18 228 4.8 8.0 0.00 0.36 0.36 82 1007.6
20260506190428 18 214 4.8 4.8 0.00 0.36 0.36 84 1007.6
20260506185925 18 292 1.6 3.2 0.00 0.36 0.36 84 1007.6
20260506185422 18 273 1.6 3.2 0.00 0.36 0.36 85 1007.5
20260506184919 18 321 1.6 3.2 0.00 0.36 0.36 86 1007.6
20260506184416 18 300 1.6 1.6 0.00 0.36 0.36 87 1007.5
20260506183914 17 311 1.6 1.6 0.00 0.36 0.36 88 1007.6
20260506183409 17 256 4.8 8.0 0.00 0.36 0.36 88 1007.6
20260506182906 17 316 0.0 1.6 0.00 0.36 0.36 88 1007.5
20260506182403 17 264 1.6 3.2 0.00 0.36 0.36 89 1007.6
20260506181900 17 300 1.6 3.2 0.00 0.36 0.36 89 1007.8
20260506181358 17 294 3.2 4.8 0.00 0.36 0.36 90 1007.8
20260506180855 17 278 3.2 3.2 0.00 0.36 0.36 91 1007.9
20260506180351 17 285 3.2 3.2 0.00 0.36 0.36 91 1008.0
20260506175848 17 303 0.0 1.6 0.00 0.36 0.36 92 1007.8
20260506175344 17 229 4.8 9.7 0.00 0.36 0.36 92 1007.8
20260506174842 17 314 1.6 1.6 0.00 0.36 0.36 92 1007.9
20260506174339 17 205 6.4 11.3 0.00 0.36 0.36 92 1007.8
20260506173837 16 147 4.8 8.0 0.00 0.36 0.36 93 1008.2
20260506173333 16 338 1.6 1.6 0.00 0.36 0.36 93 1008.0
20260506172830 16 310 1.6 3.2 0.00 0.36 0.36 94 1007.9
20260506172327 16 302 4.8 4.8 0.00 0.36 0.36 94 1007.9
20260506171824 16 309 6.4 8.0 0.00 0.36 0.36 94 1007.9
20260506171321 16 301 3.2 3.2 0.00 0.36 0.36 94 1007.8
20260506170819 16 325 4.8 8.0 0.00 0.36 0.36 94 1008.0
20260506170315 16 265 6.4 8.0 0.00 0.36 0.36 95 1008.1
20260506165814 16 325 3.2 4.8 0.00 0.36 0.36 95 1008.2
20260506165311 16 313 0.0 1.6 0.00 0.36 0.36 95 1008.1
20260506164808 16 333 3.2 4.8 0.00 0.36 0.36 95 1008.2
20260506164304 16 297 3.2 4.8 0.00 0.36 0.36 95 1008.1
20260506163801 15 334 3.2 4.8 0.00 0.36 0.36 95 1008.2
20260506163256 15 247 3.2 4.8 0.00 0.36 0.36 95 1008.2
20260506162752 15 297 4.8 4.8 0.00 0.36 0.36 95 1008.2
20260506162250 16 259 6.4 8.0 0.00 0.36 0.36 95 1008.3
20260506161747 16 232 4.8 4.8 0.00 0.36 0.36 95 1008.4
20260506161244 16 289 4.8 8.0 0.00 0.36 0.36 95 1008.4
20260506160742 16 321 0.0 0.0 0.00 0.36 0.36 95 1008.2
20260506160238 16 240 1.6 3.2 0.00 0.36 0.36 95 1008.3
20260506155737 15 203 3.2 4.8 0.00 0.36 0.36 95 1008.5
20260506155233 15 259 6.4 9.7 0.00 0.36 0.36 95 1008.4
20260506153341 16 260 0.0 1.6 0.18 0.36 0.36 95 1008.8
20260506152838 15 312 3.2 4.8 0.18 0.36 0.36 95 1009.0
20260506152335 15 13 3.2 8.0 0.13 0.33 0.33 95 1008.8
20260506151833 16 311 1.6 1.6 0.30 0.33 0.33 95 1009.1
20260506151330 16 280 3.2 4.8 0.18 0.30 0.30 95 1009.3
20260506150827 16 323 3.2 3.2 0.00 0.28 0.28 95 1009.2
20260506150324 16 305 1.6 3.2 0.13 0.28 0.28 95 1009.1
20260506145820 16 280 1.6 3.2 0.13 0.28 0.28 95 1009.3
20260506145317 16 288 1.6 1.6 0.18 0.25 0.25 95 1009.2
20260506144815 16 300 0.0 1.6 0.30 0.25 0.25 95 1008.8
20260506144311 16 314 1.6 3.2 0.13 0.23 0.23 95 1009.0
20260506143810 16 308 0.0 1.6 0.18 0.20 0.20 95 1008.9
20260506143306 16 303 1.6 3.2 0.18 0.20 0.20 95 1008.8
20260506142804 16 318 0.0 1.6 0.13 0.18 0.18 95 1009.0
20260506142305 16 313 0.0 0.0 0.30 0.18 0.18 95 1009.0
20260506141800 16 319 3.2 4.8 0.30 0.15 0.15 95 1009.1
20260506141258 16 288 1.6 1.6 0.13 0.13 0.13 95 1009.2
20260506140755 16 303 3.2 4.8 0.18 0.10 0.10 95 1009.4
20260506140252 16 315 1.6 1.6 0.36 0.10 0.10 94 1009.4
20260506135749 16 306 1.6 3.2 0.18 0.08 0.08 93 1009.4
20260506135245 16 298 0.0 1.6 0.13 0.05 0.05 93 1009.1
20260506134742 16 281 3.2 3.2 0.13 0.05 0.05 92 1009.3
20260506134238 16 302 1.6 1.6 0.00 0.03 0.03 92 1009.1
20260506133736 16 208 8.0 11.3 0.18 0.03 0.03 91 1009.2
20260506133232 16 258 1.6 3.2 0.18 0.03 0.03 91 1009.4
20260506132729 16 299 1.6 1.6 0.00 0.00 0.00 90 1009.4
20260506132226 17 289 0.0 1.6 0.00 0.00 0.00 89 1009.0
20260506131724 17 258 1.6 3.2 0.00 0.00 0.00 88 1008.9
20260506131220 17 301 1.6 1.6 0.00 0.00 0.00 88 1008.8
20260506130717 17 295 0.0 0.0 0.00 0.00 0.00 88 1008.9
20260506130214 17 270 3.2 4.8 0.00 0.00 0.00 87 1008.9
20260506125712 17 315 0.0 0.0 0.00 0.00 0.00 87 1009.0
20260506125210 17 302 0.0 1.6 0.00 0.00 0.00 87 1009.0
20260506124708 17 207 3.2 4.8 0.00 0.00 0.00 86 1009.2
20260506124206 17 292 1.6 3.2 0.00 0.00 0.00 86 1009.1
20260506123702 17 303 1.6 3.2 0.00 0.00 0.00 85 1009.2
20260506123202 17 306 0.0 0.0 0.00 0.00 0.00 84 1009.2
20260506122658 17 212 4.8 8.0 0.00 0.00 0.00 84 1009.3
20260506122155 17 274 3.2 4.8 0.00 0.00 0.00 84 1009.3
20260506121653 17 260 3.2 4.8 0.00 0.00 0.00 83 1009.4
20260506121149 17 276 3.2 4.8 0.00 0.00 0.00 83 1009.4
20260506120647 17 308 0.0 1.6 0.00 0.00 0.00 83 1009.4
20260506120144 17 289 3.2 4.8 0.00 0.00 0.00 82 1009.3
20260506115642 17 315 0.0 1.6 0.00 0.00 0.00 82 1009.3
20260506115140 17 287 3.2 3.2 0.00 0.00 0.00 81 1009.0
20260506114637 17 329 1.6 1.6 0.00 0.00 0.00 81 1009.0
20260506114135 17 297 4.8 4.8 0.00 0.00 0.00 81 1008.9
20260506113634 17 216 3.2 4.8 0.00 0.00 0.00 82 1008.8
20260506113130 17 282 4.8 8.0 0.00 0.00 0.00 82 1008.8
20260506112626 17 290 4.8 4.8 0.00 0.00 0.00 82 1008.9
20260506112124 17 307 3.2 8.0 0.00 0.00 0.00 82 1008.9
20260506111622 17 214 3.2 4.8 0.00 0.00 0.00 82 1008.8
20260506111119 17 315 1.6 3.2 0.00 0.00 0.00 82 1008.8
20260506110616 17 53 6.4 9.7 0.00 0.00 0.00 83 1008.8
20260506110114 17 295 1.6 1.6 0.00 0.00 0.00 83 1008.7
20260506105610 17 292 3.2 4.8 0.00 0.00 0.00 83 1008.7
20260506105107 17 235 6.4 9.7 0.00 0.00 0.00 83 1008.7
20260506104606 17 283 6.4 9.7 0.00 0.00 0.00 83 1008.6
20260506104102 17 216 4.8 8.0 0.00 0.00 0.00 83 1008.7
20260506103600 16 319 3.2 4.8 0.00 0.00 0.00 84 1008.5
20260506103056 16 312 4.8 4.8 0.00 0.00 0.00 84 1008.6
20260506102555 16 208 4.8 4.8 0.00 0.00 0.00 84 1008.4
20260506102052 16 306 4.8 9.7 0.00 0.00 0.00 84 1008.4
20260506101548 16 301 1.6 3.2 0.00 0.00 0.00 84 1008.7
20260506101045 16 294 0.0 1.6 0.00 0.00 0.00 83 1008.6
20260506100544 16 252 3.2 3.2 0.00 0.00 0.00 84 1008.5
20260506100041 16 257 8.0 11.3 0.00 0.00 0.00 84 1008.5
20260506095540 16 300 1.6 3.2 0.00 0.00 0.00 83 1008.6
20260506095036 16 317 1.6 1.6 0.00 0.00 0.00 83 1008.4
20260506094534 17 208 3.2 4.8 0.00 0.00 0.00 83 1008.3
20260506094032 17 310 1.6 3.2 0.00 0.00 0.00 83 1008.5
20260506093530 17 280 4.8 8.0 0.00 0.00 0.00 83 1008.5
20260506093027 17 344 3.2 3.2 0.00 0.00 0.00 83 1008.5
20260506092525 17 262 3.2 4.8 0.00 0.00 0.00 82 1008.5
20260506092021 17 310 4.8 4.8 0.00 0.00 0.00 82 1008.7
20260506091520 17 266 1.6 3.2 0.00 0.00 0.00 82 1008.4
20260506091016 17 274 1.6 3.2 0.00 0.00 0.00 82 1008.8
20260506090514 17 297 0.0 0.0 0.00 0.00 0.00 82 1008.6
20260506090010 17 336 3.2 3.2 0.00 0.00 0.00 81 1008.8
20260506085507 17 302 1.6 3.2 0.00 0.00 0.00 81 1008.7
20260506085004 17 295 0.0 1.6 0.00 0.00 0.00 81 1008.7
20260506084501 17 318 3.2 3.2 0.00 0.00 0.00 81 1008.9
20260506083956 17 351 1.6 3.2 0.00 0.00 0.00 81 1008.8
20260506083454 17 201 3.2 8.0 0.00 0.00 0.00 81 1008.9
20260506082951 17 308 1.6 3.2 0.00 0.00 0.00 81 1008.4
20260506082448 17 258 4.8 4.8 0.00 0.00 0.00 80 1008.5
20260506081944 17 258 4.8 4.8 0.00 0.00 0.00 80 1008.5
20260506081442 17 287 4.8 8.0 0.00 0.00 0.00 79 1008.6
20260506080939 17 299 4.8 8.0 0.00 0.00 0.00 79 1008.6
20260506080436 18 323 3.2 4.8 0.00 0.00 0.00 79 1008.8
20260506073420 18 316 3.2 4.8 0.00 0.00 0.00 76 1008.8
20260506072918 18 317 0.0 0.0 0.00 0.00 0.00 76 1009.0
20260506072414 18 322 0.0 0.0 0.00 0.00 0.00 76 1009.0
20260506071912 18 273 3.2 3.2 0.00 0.00 0.00 75 1008.9
20260506071410 18 278 0.0 1.6 0.00 0.00 0.00 75 1008.8
20260506070907 18 57 4.8 4.8 0.00 0.00 0.00 75 1009.1